Regional Weather Roundup
Issued by NWS Charleston, SC

Current Version | Previous Version | Text Only | Print | Product List | Glossary Off
Versions: 1 2 3 4 5 6 7 8 9 10 11 12 13 14 15 16 17 18 19 20 21 22 23 24 25 26 27 28 29 30 31 32 33 34 35 36 37 38 39 40 41 42 43 44 45 46 47 48 49 50

000
ASUS42 KCHS 052212
RWRCHS

REGIONAL WEATHER ROUNDUP
NATIONAL WEATHER SERVICE CHARLESTON SC
600 PM EDT TUE MAY 05 2015

NOTE: "FAIR" INDICATES FEW OR NO CLOUDS BELOW 12,000 FEET WITH NO
SIGNIFICANT WEATHER AND/OR OBSTRUCTIONS TO VISIBILITY.

NOT ALL STATIONS ARE QUALITY CONTROLLED BY THE NATIONAL
WEATHER SERVICE. USE DATA WITH CAUTION...ESPECIALLY
DEWPOINT OBSERVATIONS.

SCZ027-030-031-034>040-042>050-052300-
...SOUTHEAST SOUTH CAROLINA...

CITY           SKY/WX    TMP DP  RH WIND       PRES   REMARKS
N CHARLESTON   PTSUNNY   76  54  46 E9        30.24S
WATERFRONT PRK   N/A     73 N/A N/A E15         N/A
MOUNT PLEASANT FAIR      75  57  53 MISG      30.25S
PINOPOLIS      NOT AVBL
MONCKS CORNER  MOCLDY    77  50  38 E6        30.24S
SUMMERVILLE    FAIR      81  52  36 E7        30.24F
BEAUFORT MCAS  PTSUNNY   76  60  57 SE9       30.23S
BEAUFORT ARPT  FAIR      75  61  60 E12       30.23S
HILTON HEAD IS SUNNY     73  61  64 E10G17    30.25S
WALTERBORO     CLEAR     79  45  29 E8        30.24S
ALLENDALE      FAIR      79  52  38 SE8       30.22S

...SOUTHERN MIDLANDS AND PEE DEE...

CITY           SKY/WX    TMP DP  RH WIND       PRES   REMARKS
GEORGETOWN     NOT AVBL
KINGSTREE      NOT AVBL
ORANGEBURG     SUNNY     80  50  34 E9        30.23F
BARNWELL       FAIR      81  54  39 E8        30.23S
AIKEN          FAIR      79  46  31 E9G16     30.26S
MANNING        FAIR      79  43  27 E7        30.24S
COLUMBIA       MOSUNNY   82  50  32 SE12      30.22F
SUMTER         SUNNY     82  53  36 SE7       30.22F
FLORENCE       MOSUNNY   81  53  37 SE9       30.24S
MYRTLE BEACH   SUNNY     73  55  53 SE9       30.29F
N MYRTLE BEACH PTSUNNY   72  57  59 E8        30.27F

$$

GAZ063-065-086>088-099>101-113>116-118-119-134>141-150-052300-
...SOUTHEAST GEORGIA...

CITY           SKY/WX    TMP DP  RH WIND       PRES   REMARKS
SAVANNAH ARPT  PTSUNNY   77  55  46 E10       30.22F
HUNTER AAF     MOSUNNY   77  60  54 E15       30.20S
FORT STEWART   MOSUNNY   77  57  51 E14       30.20S
STATESBORO       N/A     80  54  40 SE8       30.22S
SYLVANIA       PTCLDY    79  57  46 SE10      30.22F
CLAXTON        FAIR      77  54  44 E8        30.21S

...CSRA...CENTRAL AND FAR SOUTHEAST GEORGIA...

CITY           SKY/WX    TMP DP  RH WIND       PRES   REMARKS
THOMSON        SUNNY     82  54  38 E6        30.26S
AUGUSTA-BUSH   MOSUNNY   81  52  36 E8        30.21F
AUGUSTA-DANIEL SUNNY     82  46  28 E8G20     30.22F
SWAINSBORO     MOCLDY    82  32  16 E10G16    30.21S
VIDALIA        MOSUNNY   81  54  39 E12G17    30.20S HAZE
EASTMAN        FAIR      80  54  41 E5        30.21F
HAZLEHURST     FAIR      80  56  43 SE6       30.18S
ALMA           PTSUNNY   79  56  45 E9        30.18F
WAYCROSS       MOSUNNY   83  62  49 E10G16    30.18S
JESUP          FAIR      81  61  50 E12       30.20S
BAXLEY         FAIR      81  55  41 E10       30.19S
BRUNSWICK      PTSUNNY   73  59  60 NE15G22   30.22R
SAINT SIMONS   PTSUNNY   73  61  65 NE15G23   30.21S

$$

SCZ027-028-034-036>038-045-046-048>050-GAZ119-141-052300-
...LAKE AND SUPPLEMENTAL COASTAL OBSERVATIONS...

STATION/POSITION TIME  TEMP    WIND        PRES    WAVE   SWELL
                       AIR SEA DIR/SP/G            HT/PER HT/PER/DIR
                 (UTC) (F)     (DEG/KT/KT) (MB)    (FT/S) (FT/S/D)
UPR LAKE MARION  NOT AVBL
WINYAH BAY       NOT AVBL
LAKE MURRAY      2100   78     110/  5/  6 1023.4F
ACE BASIN NERRS  NOT AVBL
FORT PULASKI     2112   71 71   60/ 17/ 21 1024.2F
SAPELO ISLAND    2100   75      50/ 13     1023.0F

$$

ANZ835-935-AMZ111-154-330-350-352-354-370-450-454-472-052300-
...C-MAN AND BUOY OBSERVATIONS...

STATION/POSITION TIME  TEMP    WIND        PRES    WAVE   SWELL
                       AIR SEA DIR/SP/G            HT/PER HT/PER/DIR
                 (UTC) (F)     (DEG/KT/KT) (MB)    (FT/S) (FT/S/D)
BUOY 41004       2150   73 73   60/ 16/ 17 1023.6F   3/ 7   2/ 7
BUOY 41008       2150   71 71   60/ 19/ 23 1022.9F   5/ 6   2/ 80/ 9
FOLLY BEACH CMAN 2200   71      80/ 15/ 17 1024.3F
CAPERS NEARSHORE 2108   71      80/ 14/ 17 1024.6F
FRIPP NEARSHORE  2100   72      80/ 17/ 19 1023.2F


STATION/POSITION TIME  TEMP    WIND        PRES    WAVE   SWELL
                       AIR SEA DIR/SP/G            HT/PER HT/PER/DIR
                 (UTC) (F)     (DEG/KT/KT) (MB)    (FT/S) (FT/S/D)
5E ST. MARYS GA  2121      72                N/A     5/ 7
FRYING PAN BUOY  2150   73 72  100/ 10/ 10 1026.1F   3/ 6   3/130/ 6
BUOY 41025       2150   72 77  160/ 16/ 17 1026.0F   3/11   2/ 80/11
CAPE LOOKOUT NC  2100   70     150/  8/  9 1025.9F
BUOY 41002       2150   70 70   90/ 17/ 21 1024.8F   6/ 7   2/ 50/11
BUOY 41010       2120   75 78   70/ 17/ 21 1019.1F
ST AUGUSTINE FL  2200   72 74   20/ 12/ 13 1021.8F


$$


USA.gov is the U.S. government's official web portal to all federal, state and local government web resources and services.